GEFSSE_prec_meanprecacc_252.txt.gz
Total_Precipitation_Accumulation
0.32 0.18 0.21 0.20 0.18 0.18 0.19 0.22 0.21 0.21 0.19 0.17 0.16 0.14 0.14 0.13 0.12 0.10 0.10 0.11 0.14 0.20 0.25 0.27 0.29 0.34 0.37 0.32 0.25 0.21 0.22 0.25 0.30 0.33 0.37 0.42 0.47 0.55 0.65 0.65 0.70 0.69 0.63
0.39 0.21 0.21 0.21 0.21 0.21 0.18 0.19 0.20 0.21 0.19 0.16 0.14 0.13 0.13 0.12 0.12 0.12 0.12 0.13 0.16 0.18 0.19 0.21 0.25 0.27 0.26 0.21 0.18 0.17 0.17 0.21 0.34 0.49 0.62 0.65 0.67 0.70 0.79 0.85 0.95 0.99 0.73
0.52 0.36 0.25 0.23 0.20 0.20 0.19 0.19 0.20 0.20 0.20 0.18 0.15 0.13 0.13 0.11 0.11 0.12 0.12 0.14 0.19 0.21 0.19 0.18 0.18 0.18 0.17 0.16 0.16 0.18 0.22 0.29 0.51 0.78 1.17 1.40 1.16 1.03 0.97 0.94 0.91 0.79 0.77
0.49 0.46 0.32 0.29 0.25 0.22 0.21 0.22 0.23 0.21 0.19 0.17 0.15 0.14 0.13 0.13 0.13 0.14 0.15 0.17 0.22 0.25 0.23 0.19 0.17 0.15 0.15 0.16 0.17 0.21 0.28 0.40 0.68 1.02 1.73 1.85 1.76 1.65 1.19 0.95 0.83 0.79 0.90
0.43 0.42 0.39 0.32 0.28 0.26 0.25 0.26 0.27 0.27 0.21 0.19 0.19 0.19 0.19 0.17 0.17 0.19 0.23 0.26 0.28 0.28 0.28 0.26 0.22 0.20 0.19 0.18 0.20 0.24 0.31 0.46 0.84 1.22 1.74 2.23 2.53 2.10 1.53 1.16 0.95 0.90 1.03
0.45 0.43 0.39 0.37 0.35 0.35 0.35 0.33 0.31 0.29 0.26 0.26 0.25 0.24 0.23 0.23 0.24 0.27 0.34 0.39 0.38 0.36 0.38 0.37 0.34 0.28 0.23 0.22 0.25 0.29 0.39 0.59 0.84 1.21 1.77 2.44 2.37 2.01 1.68 1.43 1.22 1.13 1.13
0.48 0.53 0.42 0.44 0.44 0.44 0.45 0.43 0.41 0.36 0.34 0.35 0.35 0.31 0.29 0.29 0.31 0.35 0.42 0.44 0.44 0.44 0.45 0.42 0.35 0.28 0.25 0.25 0.30 0.35 0.47 0.66 0.84 1.38 1.86 2.24 2.08 1.82 1.73 1.60 1.50 1.39 1.28
0.51 0.49 0.48 0.48 0.51 0.51 0.54 0.58 0.56 0.50 0.46 0.45 0.43 0.40 0.35 0.33 0.36 0.41 0.45 0.46 0.46 0.44 0.42 0.40 0.37 0.33 0.32 0.31 0.33 0.42 0.53 0.58 0.66 1.18 1.68 1.86 1.61 1.64 1.77 1.64 1.54 1.43 1.33
0.61 0.61 0.66 0.69 0.71 0.73 0.74 0.74 0.74 0.66 0.59 0.54 0.48 0.42 0.38 0.37 0.40 0.43 0.50 0.54 0.53 0.46 0.42 0.40 0.39 0.36 0.35 0.34 0.35 0.40 0.48 0.60 0.65 0.96 1.53 1.89 1.47 1.58 1.83 1.72 1.54 1.47 1.38
1.02 1.03 1.06 1.05 0.97 0.86 0.82 0.85 0.82 0.74 0.66 0.58 0.49 0.43 0.43 0.47 0.52 0.60 0.55 0.56 0.56 0.54 0.50 0.49 0.43 0.38 0.38 0.37 0.37 0.43 0.51 0.52 0.54 0.91 1.46 1.57 1.49 1.80 2.02 1.83 1.62 1.56 1.41
1.63 1.61 1.50 1.41 1.23 1.22 1.13 0.93 0.96 0.86 0.77 0.67 0.62 0.56 0.58 0.68 0.84 0.92 0.76 0.78 0.73 0.70 0.67 0.66 0.61 0.57 0.52 0.46 0.48 0.55 0.58 0.53 0.71 1.07 1.66 1.75 1.94 2.13 2.29 2.12 1.84 1.69 1.59
2.10 2.03 1.76 1.73 1.68 1.55 1.42 1.32 1.28 1.10 1.02 0.89 0.98 0.88 0.96 1.26 1.36 1.20 1.20 1.09 1.08 1.04 0.93 0.91 0.88 0.76 0.68 0.67 0.77 0.79 0.61 0.64 0.83 1.12 1.46 1.74 2.00 2.28 2.37 2.18 1.95 1.80 1.81
2.08 1.94 2.03 2.16 2.00 1.94 1.98 1.92 1.73 1.64 1.54 1.35 1.43 1.37 1.45 1.46 1.37 1.40 1.53 1.47 1.39 1.33 1.36 1.40 1.22 1.01 1.02 1.08 1.06 0.96 0.83 0.90 0.95 1.11 1.42 1.66 1.91 2.33 2.49 2.28 2.06 1.99 1.99
2.31 2.10 2.17 2.16 2.13 2.24 2.23 2.22 2.21 2.14 2.08 1.96 1.91 1.68 1.80 1.87 1.89 1.88 2.01 1.99 2.00 2.01 2.01 1.92 1.74 1.56 1.42 1.39 1.32 1.28 1.14 1.11 1.24 1.46 1.62 1.66 1.80 2.18 2.47 2.47 2.25 2.12 2.06
2.95 2.67 2.49 2.57 2.45 2.40 2.53 2.60 2.35 2.41 2.40 2.52 2.47 2.16 2.20 2.24 2.25 2.43 2.43 2.50 2.45 2.59 2.52 2.33 2.09 1.97 1.84 1.58 1.47 1.50 1.47 1.44 1.48 1.57 1.76 1.83 1.84 2.07 2.42 2.64 2.56 2.42 2.42
3.40 3.15 2.85 2.75 2.78 2.69 2.80 2.99 2.84 2.63 2.69 2.72 2.80 2.62 2.57 2.61 2.68 2.74 2.79 2.85 2.69 2.68 2.72 2.62 2.33 2.20 2.06 1.84 1.61 1.52 1.51 1.67 1.67 1.61 1.81 1.95 1.89 1.91 2.22 2.65 2.87 2.98 3.06
3.58 3.26 3.18 2.98 3.16 3.33 3.53 3.46 3.40 3.35 3.29 3.17 3.10 3.13 2.98 2.94 3.01 2.99 3.16 3.23 3.07 2.99 2.96 2.89 2.74 2.49 2.33 2.22 2.07 1.89 1.77 1.77 1.89 1.98 2.01 2.13 2.19 2.16 2.29 2.55 2.83 3.03 3.17
3.51 3.44 3.53 3.32 3.38 3.60 3.62 3.57 3.64 3.82 3.78 3.61 3.45 3.47 3.35 3.35 3.43 3.56 3.48 3.34 3.26 3.17 3.17 3.29 3.09 2.76 2.65 2.67 2.55 2.21 1.92 1.96 2.05 2.12 2.13 2.23 2.42 2.35 2.39 2.38 2.51 2.75 2.99
3.41 3.34 3.51 3.70 3.53 3.68 3.77 3.80 3.93 4.06 4.21 4.12 4.00 3.85 3.77 3.80 3.80 3.92 3.85 3.66 3.48 3.40 3.41 3.19 3.16 3.06 3.04 2.96 2.58 2.34 2.04 1.98 2.05 2.03 2.08 2.18 2.40 2.51 2.54 2.34 2.41 2.71 2.90
3.43 3.45 3.54 3.86 3.84 4.11 4.18 3.99 4.03 4.05 4.20 4.28 4.34 4.28 4.31 4.33 4.24 4.22 4.08 3.95 3.84 3.69 3.60 3.46 3.41 3.34 3.17 3.02 2.60 2.35 2.16 1.98 1.96 2.01 2.01 2.09 2.15 2.19 2.30 2.33 2.37 2.31 2.54
3.65 3.74 3.71 3.81 4.03 4.22 4.37 4.31 4.42 4.37 4.31 4.50 4.67 4.68 4.80 4.88 4.70 4.65 4.53 4.40 4.16 3.91 3.76 3.62 3.46 3.31 3.06 2.96 2.81 2.52 2.15 1.90 1.92 1.90 1.85 1.93 2.00 1.96 2.03 2.11 2.28 2.23 2.16
3.80 3.89 4.03 4.14 4.15 4.30 4.74 5.14 5.42 5.68 5.67 5.59 5.66 5.68 5.51 5.39 5.31 5.16 5.08 4.82 4.46 4.19 3.89 3.65 3.47 3.21 2.96 2.91 2.91 2.95 2.54 2.17 1.79 1.56 1.60 1.64 1.66 1.67 1.74 1.85 1.91 1.97 1.93
3.58 3.79 3.91 4.15 4.50 5.01 5.60 6.01 6.30 6.56 6.62 6.38 6.14 6.02 5.75 5.53 5.40 5.09 4.87 4.75 4.46 4.03 3.76 3.58 3.39 3.18 2.95 2.86 2.80 2.98 2.79 2.41 2.00 1.75 1.56 1.46 1.49 1.59 1.63 1.73 1.77 1.72 1.64
3.20 3.52 3.84 4.13 4.73 5.62 6.28 6.68 7.02 7.11 7.02 6.84 6.62 6.23 5.71 5.34 5.01 4.73 4.49 4.21 3.95 3.60 3.35 3.16 3.08 3.04 2.94 2.75 2.69 2.53 2.35 2.22 2.19 1.95 1.73 1.62 1.58 1.59 1.54 1.48 1.51 1.55 1.55
2.97 3.30 3.69 4.08 4.74 5.42 6.03 6.61 7.03 7.14 7.04 6.80 6.33 5.78 5.21 4.75 4.34 3.98 3.71 3.47 3.24 2.95 2.73 2.55 2.52 2.63 2.67 2.59 2.55 2.51 2.39 2.29 2.19 2.04 1.87 1.82 1.79 1.69 1.56 1.47 1.44 1.43 1.41
2.57 2.90 3.35 3.78 4.30 4.90 5.30 5.82 6.17 6.32 6.19 5.80 5.25 4.62 4.21 3.91 3.62 3.28 2.99 2.74 2.48 2.26 2.11 2.03 1.99 2.04 2.18 2.25 2.29 2.29 2.28 2.36 2.34 2.29 2.13 2.01 1.96 1.83 1.69 1.57 1.49 1.47 1.42

GEFSSE_prec_meanprecacc_258.txt.gz
Total_Precipitation_Accumulation
0.34 0.21 0.23 0.22 0.19 0.20 0.21 0.25 0.24 0.24 0.22 0.20 0.18 0.17 0.16 0.14 0.13 0.11 0.10 0.12 0.15 0.21 0.26 0.28 0.30 0.35 0.39 0.33 0.26 0.22 0.24 0.27 0.32 0.36 0.41 0.47 0.51 0.59 0.70 0.71 0.76 0.74 0.67
0.40 0.23 0.24 0.22 0.22 0.22 0.20 0.22 0.23 0.23 0.21 0.18 0.16 0.15 0.15 0.12 0.12 0.12 0.13 0.14 0.17 0.19 0.20 0.22 0.25 0.28 0.27 0.22 0.19 0.19 0.19 0.24 0.36 0.52 0.66 0.70 0.73 0.75 0.86 0.91 1.03 1.05 0.78
0.53 0.37 0.27 0.25 0.22 0.22 0.21 0.22 0.22 0.22 0.22 0.19 0.16 0.14 0.14 0.12 0.12 0.12 0.13 0.15 0.20 0.22 0.20 0.19 0.19 0.19 0.19 0.17 0.17 0.19 0.24 0.32 0.53 0.79 1.19 1.42 1.19 1.07 1.03 1.01 0.99 0.87 0.86
0.50 0.47 0.35 0.31 0.26 0.23 0.23 0.25 0.26 0.23 0.20 0.18 0.16 0.15 0.14 0.13 0.14 0.15 0.16 0.18 0.24 0.27 0.25 0.20 0.19 0.16 0.17 0.18 0.18 0.22 0.29 0.41 0.70 1.04 1.74 1.86 1.78 1.68 1.23 0.99 0.90 0.86 0.99
0.44 0.43 0.41 0.34 0.30 0.27 0.26 0.28 0.30 0.30 0.24 0.22 0.21 0.20 0.20 0.18 0.18 0.20 0.24 0.28 0.30 0.30 0.31 0.28 0.25 0.22 0.21 0.19 0.21 0.26 0.33 0.48 0.86 1.23 1.75 2.24 2.56 2.13 1.57 1.20 1.00 0.96 1.09
0.45 0.44 0.41 0.39 0.37 0.38 0.37 0.36 0.35 0.33 0.29 0.28 0.27 0.26 0.24 0.24 0.25 0.29 0.35 0.41 0.40 0.38 0.41 0.40 0.36 0.30 0.25 0.24 0.27 0.32 0.42 0.63 0.86 1.23 1.79 2.46 2.39 2.05 1.73 1.48 1.26 1.18 1.18
0.49 0.54 0.44 0.46 0.46 0.46 0.47 0.45 0.44 0.40 0.37 0.37 0.37 0.32 0.30 0.30 0.33 0.37 0.43 0.45 0.45 0.46 0.48 0.45 0.38 0.30 0.27 0.27 0.31 0.37 0.50 0.70 0.88 1.41 1.87 2.26 2.11 1.86 1.78 1.66 1.56 1.44 1.33
0.51 0.50 0.50 0.50 0.53 0.53 0.56 0.60 0.59 0.53 0.49 0.47 0.46 0.42 0.37 0.35 0.37 0.43 0.47 0.48 0.48 0.46 0.43 0.42 0.39 0.35 0.34 0.33 0.35 0.44 0.56 0.61 0.68 1.20 1.70 1.89 1.64 1.67 1.83 1.71 1.60 1.50 1.40
0.62 0.62 0.68 0.71 0.73 0.76 0.77 0.76 0.77 0.70 0.64 0.59 0.53 0.45 0.41 0.40 0.42 0.46 0.53 0.56 0.55 0.48 0.44 0.42 0.41 0.38 0.37 0.36 0.36 0.43 0.51 0.62 0.67 0.99 1.55 1.92 1.50 1.63 1.88 1.77 1.60 1.54 1.45
1.03 1.04 1.08 1.07 0.99 0.89 0.85 0.88 0.86 0.79 0.72 0.65 0.55 0.48 0.47 0.50 0.55 0.64 0.59 0.59 0.59 0.57 0.53 0.52 0.46 0.41 0.41 0.40 0.40 0.46 0.54 0.55 0.56 0.93 1.49 1.60 1.52 1.84 2.07 1.88 1.67 1.62 1.47
1.63 1.63 1.52 1.43 1.25 1.24 1.15 0.96 1.00 0.91 0.82 0.74 0.69 0.63 0.64 0.72 0.89 0.97 0.80 0.83 0.77 0.75 0.72 0.73 0.69 0.64 0.57 0.50 0.52 0.58 0.61 0.55 0.73 1.10 1.70 1.77 1.96 2.15 2.32 2.16 1.88 1.75 1.64
2.11 2.04 1.77 1.75 1.70 1.58 1.46 1.37 1.34 1.16 1.08 0.98 1.07 0.98 1.03 1.32 1.44 1.26 1.25 1.15 1.14 1.09 0.97 0.96 0.94 0.83 0.73 0.71 0.82 0.84 0.64 0.66 0.85 1.15 1.48 1.76 2.02 2.30 2.40 2.23 1.99 1.85 1.87
2.10 1.95 2.05 2.19 2.04 2.01 2.10 2.03 1.82 1.73 1.62 1.43 1.51 1.45 1.53 1.53 1.44 1.45 1.58 1.52 1.43 1.36 1.39 1.42 1.25 1.05 1.06 1.13 1.12 1.00 0.86 0.93 0.98 1.14 1.44 1.68 1.93 2.35 2.53 2.32 2.12 2.06 2.08
2.33 2.12 2.19 2.20 2.19 2.29 2.30 2.32 2.31 2.24 2.18 2.06 2.00 1.76 1.87 1.93 1.94 1.94 2.07 2.05 2.05 2.05 2.06 1.97 1.78 1.60 1.46 1.44 1.38 1.33 1.18 1.15 1.28 1.49 1.66 1.69 1.82 2.21 2.51 2.51 2.30 2.19 2.15
2.97 2.69 2.51 2.60 2.49 2.46 2.58 2.66 2.42 2.49 2.51 2.64 2.58 2.26 2.29 2.32 2.32 2.50 2.50 2.57 2.50 2.65 2.57 2.38 2.13 2.00 1.87 1.62 1.51 1.52 1.50 1.49 1.53 1.61 1.78 1.85 1.87 2.10 2.45 2.67 2.60 2.46 2.47
3.42 3.18 2.87 2.78 2.82 2.74 2.86 3.04 2.89 2.69 2.77 2.81 2.92 2.72 2.68 2.72 2.76 2.82 2.86 2.91 2.73 2.72 2.75 2.65 2.35 2.23 2.09 1.87 1.63 1.54 1.54 1.70 1.72 1.64 1.83 1.97 1.91 1.95 2.27 2.69 2.92 3.02 3.11
3.61 3.31 3.22 3.01 3.20 3.37 3.58 3.51 3.47 3.41 3.37 3.27 3.20 3.23 3.09 3.06 3.11 3.06 3.21 3.27 3.11 3.02 2.98 2.91 2.76 2.51 2.35 2.23 2.09 1.93 1.79 1.79 1.91 2.00 2.03 2.15 2.21 2.18 2.31 2.58 2.87 3.08 3.22
3.55 3.50 3.59 3.36 3.41 3.64 3.65 3.60 3.71 3.89 3.89 3.75 3.60 3.63 3.48 3.49 3.56 3.65 3.54 3.38 3.29 3.21 3.19 3.31 3.11 2.78 2.67 2.69 2.57 2.23 1.94 1.99 2.08 2.14 2.14 2.25 2.44 2.37 2.40 2.40 2.53 2.78 3.03
3.44 3.39 3.58 3.76 3.58 3.73 3.83 3.88 4.05 4.17 4.29 4.20 4.09 3.98 3.91 3.92 3.89 4.00 3.91 3.70 3.52 3.43 3.45 3.21 3.19 3.09 3.07 2.98 2.60 2.36 2.07 2.00 2.07 2.06 2.11 2.19 2.41 2.53 2.56 2.36 2.44 2.73 2.93
3.48 3.50 3.61 3.93 3.91 4.18 4.24 4.06 4.15 4.19 4.32 4.39 4.44 4.38 4.42 4.45 4.34 4.30 4.14 4.00 3.88 3.73 3.63 3.49 3.45 3.38 3.20 3.06 2.63 2.39 2.19 2.00 1.99 2.03 2.03 2.10 2.16 2.20 2.31 2.35 2.40 2.34 2.56
3.71 3.80 3.76 3.86 4.10 4.28 4.43 4.38 4.51 4.48 4.43 4.63 4.82 4.82 4.91 4.98 4.81 4.75 4.61 4.46 4.21 3.95 3.79 3.65 3.50 3.35 3.10 3.01 2.86 2.57 2.18 1.92 1.94 1.92 1.86 1.95 2.01 1.98 2.05 2.13 2.31 2.26 2.19
3.85 3.94 4.08 4.19 4.19 4.34 4.80 5.20 5.49 5.75 5.77 5.68 5.77 5.82 5.64 5.50 5.41 5.26 5.17 4.89 4.51 4.24 3.94 3.68 3.50 3.24 2.99 2.95 2.96 3.00 2.59 2.20 1.81 1.58 1.62 1.67 1.68 1.69 1.76 1.87 1.94 2.00 1.96
3.62 3.83 3.96 4.21 4.56 5.06 5.66 6.07 6.35 6.61 6.68 6.45 6.21 6.08 5.86 5.65 5.51 5.19 4.97 4.83 4.52 4.08 3.81 3.63 3.44 3.21 2.99 2.90 2.85 3.04 2.84 2.45 2.03 1.77 1.58 1.48 1.51 1.61 1.65 1.75 1.79 1.74 1.67
3.23 3.55 3.88 4.20 4.80 5.68 6.35 6.74 7.08 7.17 7.07 6.91 6.69 6.29 5.78 5.42 5.12 4.83 4.57 4.30 4.03 3.67 3.42 3.22 3.14 3.09 2.98 2.80 2.75 2.58 2.40 2.26 2.24 2.00 1.75 1.63 1.59 1.60 1.55 1.50 1.53 1.57 1.58
2.99 3.32 3.72 4.12 4.79 5.47 6.08 6.65 7.08 7.20 7.11 6.88 6.42 5.87 5.27 4.81 4.41 4.06 3.81 3.57 3.32 3.04 2.82 2.63 2.59 2.69 2.73 2.66 2.62 2.56 2.43 2.33 2.24 2.08 1.92 1.85 1.81 1.70 1.58 1.49 1.45 1.45 1.44
2.60 2.92 3.37 3.80 4.33 4.93 5.34 5.87 6.21 6.37 6.24 5.85 5.34 4.73 4.30 3.98 3.68 3.35 3.06 2.83 2.57 2.34 2.20 2.12 2.07 2.12 2.25 2.31 2.36 2.35 2.32 2.39 2.37 2.33 2.17 2.06 1.99 1.86 1.71 1.59 1.51 1.48 1.44

GEFSSE_prec_meanprecacc_264.txt.gz
Total_Precipitation_Accumulation
0.35 0.21 0.23 0.22 0.19 0.20 0.22 0.26 0.27 0.27 0.25 0.21 0.20 0.19 0.17 0.14 0.13 0.11 0.11 0.12 0.16 0.22 0.27 0.28 0.31 0.36 0.40 0.34 0.27 0.23 0.24 0.28 0.34 0.39 0.46 0.53 0.56 0.64 0.77 0.78 0.83 0.80 0.73
0.42 0.24 0.24 0.23 0.23 0.23 0.21 0.24 0.26 0.26 0.25 0.21 0.18 0.17 0.17 0.14 0.13 0.13 0.14 0.15 0.18 0.21 0.21 0.23 0.27 0.29 0.28 0.23 0.20 0.19 0.20 0.24 0.37 0.53 0.69 0.73 0.77 0.80 0.91 0.98 1.11 1.12 0.83
0.55 0.39 0.28 0.25 0.22 0.23 0.22 0.24 0.24 0.24 0.26 0.24 0.18 0.16 0.16 0.13 0.12 0.13 0.14 0.16 0.21 0.23 0.22 0.21 0.21 0.20 0.20 0.19 0.18 0.20 0.24 0.32 0.54 0.82 1.21 1.45 1.23 1.11 1.09 1.07 1.05 0.92 0.90
0.51 0.50 0.36 0.32 0.27 0.23 0.24 0.26 0.28 0.24 0.23 0.22 0.19 0.17 0.15 0.14 0.14 0.15 0.17 0.19 0.25 0.28 0.27 0.23 0.21 0.18 0.19 0.19 0.20 0.23 0.30 0.42 0.71 1.05 1.76 1.90 1.83 1.74 1.29 1.06 0.96 0.91 1.04
0.45 0.44 0.42 0.35 0.31 0.28 0.27 0.30 0.31 0.31 0.26 0.24 0.23 0.21 0.21 0.19 0.19 0.22 0.26 0.29 0.31 0.32 0.33 0.31 0.28 0.26 0.23 0.21 0.23 0.27 0.35 0.51 0.89 1.28 1.79 2.29 2.63 2.20 1.62 1.26 1.06 1.02 1.14
0.46 0.45 0.42 0.40 0.39 0.39 0.38 0.38 0.37 0.35 0.31 0.30 0.29 0.27 0.25 0.26 0.27 0.31 0.38 0.43 0.42 0.40 0.43 0.43 0.40 0.34 0.28 0.26 0.28 0.33 0.44 0.64 0.91 1.29 1.83 2.50 2.44 2.10 1.78 1.54 1.32 1.24 1.23
0.50 0.55 0.44 0.47 0.47 0.48 0.50 0.48 0.46 0.42 0.40 0.39 0.39 0.34 0.32 0.33 0.35 0.39 0.46 0.49 0.49 0.50 0.51 0.48 0.40 0.33 0.29 0.30 0.33 0.38 0.52 0.72 0.91 1.47 1.94 2.34 2.17 1.90 1.82 1.71 1.61 1.50 1.39
0.52 0.51 0.51 0.50 0.54 0.54 0.59 0.64 0.63 0.56 0.52 0.51 0.50 0.45 0.39 0.38 0.40 0.45 0.50 0.51 0.51 0.49 0.47 0.45 0.42 0.38 0.36 0.36 0.37 0.46 0.58 0.63 0.72 1.26 1.79 2.00 1.70 1.70 1.86 1.73 1.64 1.54 1.44
0.63 0.63 0.69 0.72 0.74 0.77 0.79 0.79 0.79 0.72 0.67 0.63 0.58 0.50 0.44 0.43 0.45 0.49 0.56 0.59 0.58 0.51 0.47 0.45 0.44 0.40 0.39 0.38 0.38 0.44 0.53 0.64 0.71 1.04 1.60 2.01 1.55 1.66 1.92 1.80 1.63 1.57 1.49
1.04 1.05 1.09 1.08 1.00 0.90 0.86 0.90 0.88 0.81 0.74 0.68 0.59 0.53 0.53 0.55 0.59 0.68 0.62 0.62 0.62 0.59 0.56 0.55 0.49 0.42 0.43 0.41 0.42 0.47 0.56 0.58 0.60 0.97 1.53 1.63 1.54 1.86 2.10 1.91 1.69 1.64 1.50
1.66 1.64 1.53 1.46 1.27 1.25 1.16 0.97 1.02 0.94 0.85 0.78 0.74 0.69 0.70 0.78 0.95 1.01 0.83 0.86 0.81 0.78 0.75 0.76 0.72 0.67 0.60 0.53 0.56 0.62 0.64 0.57 0.76 1.14 1.73 1.79 1.98 2.18 2.35 2.19 1.91 1.78 1.67
2.14 2.06 1.79 1.80 1.77 1.62 1.48 1.41 1.38 1.21 1.14 1.04 1.12 1.03 1.10 1.41 1.53 1.33 1.31 1.21 1.18 1.11 1.00 0.99 0.97 0.85 0.76 0.74 0.85 0.89 0.68 0.69 0.87 1.17 1.49 1.77 2.05 2.32 2.43 2.25 2.01 1.88 1.90
2.12 1.98 2.07 2.22 2.11 2.12 2.19 2.09 1.88 1.79 1.70 1.50 1.58 1.51 1.61 1.63 1.53 1.53 1.64 1.58 1.49 1.40 1.42 1.46 1.28 1.08 1.11 1.17 1.18 1.07 0.91 0.95 1.00 1.16 1.45 1.70 1.96 2.39 2.56 2.35 2.14 2.09 2.11
2.35 2.14 2.23 2.24 2.23 2.35 2.41 2.44 2.40 2.32 2.25 2.11 2.06 1.82 1.95 2.02 2.03 2.01 2.13 2.12 2.10 2.10 2.12 2.02 1.82 1.64 1.50 1.48 1.43 1.40 1.25 1.21 1.32 1.51 1.68 1.71 1.85 2.23 2.54 2.54 2.33 2.22 2.17
3.00 2.73 2.59 2.68 2.55 2.51 2.69 2.80 2.57 2.64 2.59 2.71 2.66 2.34 2.37 2.40 2.39 2.56 2.54 2.62 2.54 2.69 2.61 2.41 2.16 2.04 1.92 1.67 1.57 1.58 1.57 1.54 1.57 1.64 1.81 1.89 1.90 2.13 2.48 2.71 2.63 2.49 2.51
3.47 3.26 2.97 2.89 2.90 2.78 2.92 3.14 3.00 2.82 2.88 2.91 3.02 2.80 2.76 2.82 2.86 2.89 2.91 2.96 2.77 2.75 2.79 2.69 2.40 2.28 2.15 1.92 1.66 1.58 1.59 1.76 1.79 1.70 1.87 2.01 1.96 1.99 2.31 2.73 2.95 3.06 3.14
3.66 3.38 3.29 3.09 3.30 3.43 3.63 3.57 3.52 3.49 3.46 3.36 3.31 3.32 3.20 3.18 3.26 3.18 3.29 3.34 3.16 3.06 3.03 2.97 2.82 2.57 2.41 2.28 2.12 1.96 1.82 1.82 1.95 2.04 2.06 2.18 2.25 2.21 2.34 2.60 2.89 3.10 3.25
3.59 3.56 3.64 3.42 3.47 3.69 3.71 3.66 3.76 3.94 3.97 3.83 3.70 3.72 3.59 3.60 3.70 3.81 3.66 3.47 3.36 3.28 3.27 3.38 3.18 2.85 2.74 2.74 2.61 2.26 1.96 2.02 2.10 2.15 2.16 2.26 2.46 2.39 2.43 2.42 2.55 2.80 3.06
3.49 3.46 3.64 3.81 3.63 3.79 3.89 3.95 4.11 4.25 4.39 4.30 4.19 4.08 4.02 4.00 3.96 4.09 4.00 3.81 3.62 3.53 3.54 3.30 3.27 3.16 3.13 3.02 2.63 2.39 2.08 2.02 2.09 2.07 2.12 2.21 2.43 2.56 2.59 2.38 2.45 2.76 2.97
3.53 3.58 3.68 4.00 3.99 4.24 4.31 4.14 4.24 4.29 4.40 4.48 4.52 4.46 4.50 4.51 4.41 4.36 4.20 4.06 3.95 3.81 3.74 3.59 3.54 3.46 3.27 3.11 2.66 2.41 2.21 2.02 2.01 2.05 2.05 2.11 2.17 2.22 2.33 2.37 2.42 2.35 2.58
3.77 3.86 3.83 3.95 4.19 4.37 4.52 4.46 4.59 4.57 4.51 4.71 4.90 4.89 4.98 5.04 4.88 4.81 4.68 4.55 4.28 4.02 3.90 3.76 3.60 3.46 3.20 3.08 2.92 2.62 2.22 1.95 1.97 1.96 1.89 1.97 2.02 1.99 2.06 2.15 2.34 2.29 2.20
3.92 4.02 4.17 4.29 4.30 4.43 4.89 5.28 5.57 5.86 5.87 5.78 5.88 5.90 5.71 5.55 5.47 5.32 5.25 5.01 4.63 4.35 4.05 3.79 3.61 3.34 3.07 3.04 3.04 3.08 2.65 2.25 1.84 1.60 1.65 1.70 1.70 1.71 1.79 1.91 1.98 2.04 2.00
3.67 3.90 4.06 4.34 4.69 5.17 5.75 6.15 6.44 6.73 6.81 6.57 6.32 6.17 5.94 5.71 5.57 5.24 5.02 4.89 4.61 4.17 3.89 3.72 3.53 3.30 3.06 2.96 2.92 3.12 2.91 2.51 2.09 1.81 1.61 1.50 1.53 1.64 1.68 1.78 1.83 1.78 1.72
3.26 3.59 3.96 4.30 4.93 5.81 6.44 6.83 7.17 7.26 7.18 7.01 6.78 6.37 5.85 5.48 5.18 4.88 4.63 4.35 4.08 3.73 3.48 3.29 3.21 3.16 3.06 2.88 2.83 2.66 2.46 2.33 2.32 2.08 1.82 1.67 1.62 1.63 1.58 1.52 1.56 1.62 1.65
3.02 3.38 3.81 4.20 4.89 5.59 6.22 6.75 7.15 7.28 7.20 6.97 6.51 5.96 5.33 4.86 4.46 4.12 3.87 3.63 3.39 3.10 2.87 2.68 2.65 2.75 2.80 2.72 2.69 2.64 2.52 2.41 2.31 2.16 2.01 1.94 1.88 1.75 1.60 1.51 1.49 1.50 1.49
2.65 2.99 3.43 3.85 4.39 5.00 5.45 6.00 6.31 6.46 6.33 5.93 5.41 4.79 4.36 4.03 3.73 3.40 3.11 2.90 2.65 2.41 2.26 2.17 2.12 2.16 2.30 2.37 2.43 2.43 2.41 2.49 2.45 2.39 2.24 2.13 2.07 1.91 1.75 1.62 1.54 1.51 1.46

GEFSSE_prec_meanprecacc_270.txt.gz
Total_Precipitation_Accumulation
0.37 0.21 0.23 0.22 0.20 0.21 0.22 0.26 0.28 0.28 0.25 0.22 0.21 0.20 0.18 0.15 0.14 0.13 0.13 0.15 0.17 0.24 0.29 0.30 0.32 0.38 0.42 0.37 0.30 0.28 0.30 0.34 0.40 0.46 0.55 0.60 0.61 0.68 0.81 0.84 0.92 0.90 0.83
0.44 0.24 0.24 0.23 0.23 0.23 0.22 0.24 0.27 0.27 0.26 0.22 0.19 0.18 0.18 0.15 0.14 0.14 0.15 0.17 0.20 0.23 0.24 0.25 0.29 0.31 0.30 0.25 0.23 0.23 0.23 0.28 0.43 0.61 0.78 0.81 0.83 0.85 0.95 1.02 1.18 1.21 0.93
0.58 0.40 0.28 0.25 0.23 0.23 0.23 0.25 0.25 0.24 0.28 0.27 0.20 0.17 0.17 0.14 0.13 0.13 0.15 0.17 0.23 0.26 0.26 0.24 0.24 0.22 0.21 0.20 0.21 0.23 0.27 0.35 0.59 0.88 1.27 1.50 1.28 1.18 1.15 1.13 1.10 0.98 0.98
0.52 0.50 0.36 0.32 0.27 0.23 0.24 0.27 0.28 0.25 0.24 0.23 0.20 0.18 0.16 0.15 0.15 0.16 0.18 0.20 0.26 0.31 0.30 0.26 0.25 0.21 0.20 0.21 0.21 0.25 0.32 0.45 0.76 1.11 1.80 1.93 1.87 1.81 1.38 1.13 1.00 0.95 1.09
0.45 0.45 0.42 0.35 0.32 0.28 0.27 0.30 0.32 0.32 0.26 0.25 0.24 0.22 0.22 0.20 0.20 0.23 0.27 0.31 0.33 0.34 0.35 0.34 0.31 0.29 0.26 0.23 0.24 0.28 0.36 0.54 0.93 1.35 1.83 2.33 2.67 2.28 1.70 1.33 1.13 1.08 1.20
0.48 0.45 0.42 0.40 0.39 0.40 0.38 0.38 0.37 0.35 0.32 0.31 0.29 0.27 0.26 0.27 0.28 0.32 0.39 0.45 0.44 0.43 0.45 0.45 0.42 0.36 0.30 0.28 0.29 0.34 0.46 0.66 0.94 1.34 1.88 2.54 2.49 2.18 1.85 1.60 1.38 1.30 1.29
0.51 0.55 0.44 0.47 0.48 0.49 0.51 0.48 0.46 0.42 0.41 0.41 0.40 0.35 0.33 0.33 0.36 0.41 0.48 0.51 0.51 0.52 0.54 0.50 0.42 0.35 0.30 0.31 0.36 0.41 0.54 0.74 0.95 1.53 2.01 2.39 2.28 2.04 1.91 1.78 1.66 1.54 1.42
0.55 0.52 0.51 0.51 0.54 0.55 0.60 0.65 0.63 0.56 0.53 0.52 0.51 0.47 0.41 0.39 0.40 0.46 0.52 0.53 0.53 0.51 0.49 0.47 0.44 0.39 0.37 0.37 0.39 0.48 0.60 0.66 0.77 1.36 1.89 2.05 1.79 1.80 1.94 1.80 1.70 1.59 1.48
0.67 0.65 0.70 0.73 0.75 0.78 0.80 0.80 0.80 0.73 0.68 0.64 0.59 0.51 0.46 0.45 0.47 0.50 0.58 0.61 0.59 0.52 0.48 0.46 0.45 0.41 0.40 0.39 0.39 0.46 0.55 0.69 0.78 1.12 1.66 2.05 1.59 1.70 1.98 1.86 1.68 1.60 1.51
1.12 1.09 1.12 1.12 1.03 0.92 0.87 0.90 0.89 0.82 0.76 0.69 0.60 0.55 0.55 0.58 0.64 0.71 0.64 0.63 0.63 0.60 0.56 0.55 0.50 0.44 0.44 0.43 0.44 0.49 0.58 0.61 0.64 1.00 1.57 1.66 1.58 1.90 2.14 1.95 1.72 1.67 1.52
1.76 1.71 1.59 1.51 1.34 1.30 1.19 0.99 1.03 0.95 0.88 0.80 0.76 0.70 0.72 0.81 0.98 1.05 0.86 0.88 0.82 0.79 0.76 0.77 0.73 0.68 0.61 0.55 0.58 0.64 0.66 0.59 0.78 1.15 1.74 1.82 2.02 2.22 2.39 2.23 1.94 1.81 1.69
2.21 2.12 1.85 1.90 1.86 1.67 1.51 1.44 1.40 1.23 1.16 1.06 1.15 1.05 1.11 1.43 1.55 1.36 1.34 1.24 1.20 1.14 1.02 1.01 0.98 0.87 0.77 0.75 0.87 0.91 0.71 0.72 0.89 1.18 1.52 1.81 2.08 2.37 2.47 2.29 2.05 1.91 1.92
2.18 2.04 2.14 2.33 2.21 2.18 2.26 2.15 1.93 1.83 1.72 1.53 1.60 1.53 1.63 1.65 1.56 1.56 1.67 1.61 1.52 1.43 1.44 1.47 1.30 1.09 1.12 1.19 1.19 1.08 0.95 1.00 1.03 1.18 1.49 1.78 2.03 2.45 2.62 2.40 2.19 2.12 2.14
2.42 2.20 2.27 2.32 2.35 2.48 2.55 2.55 2.51 2.41 2.31 2.14 2.09 1.85 1.98 2.05 2.06 2.04 2.17 2.17 2.15 2.14 2.14 2.03 1.83 1.66 1.52 1.50 1.45 1.43 1.31 1.25 1.36 1.55 1.73 1.79 1.93 2.31 2.62 2.62 2.40 2.28 2.21
3.05 2.77 2.62 2.74 2.64 2.60 2.78 2.88 2.69 2.83 2.75 2.80 2.72 2.39 2.41 2.43 2.42 2.59 2.57 2.66 2.58 2.71 2.64 2.44 2.18 2.06 1.94 1.70 1.59 1.61 1.60 1.57 1.63 1.69 1.85 1.94 1.96 2.19 2.55 2.76 2.68 2.54 2.55
3.51 3.29 3.01 2.94 2.98 2.86 2.99 3.19 3.07 2.93 3.03 3.06 3.11 2.87 2.82 2.86 2.89 2.93 2.96 3.01 2.82 2.79 2.82 2.71 2.42 2.30 2.18 1.96 1.70 1.62 1.62 1.79 1.82 1.73 1.89 2.03 1.99 2.03 2.35 2.77 2.99 3.10 3.17
3.69 3.41 3.33 3.13 3.35 3.48 3.68 3.61 3.55 3.53 3.55 3.50 3.43 3.42 3.26 3.23 3.30 3.21 3.32 3.38 3.23 3.11 3.06 3.00 2.85 2.60 2.43 2.32 2.16 1.99 1.87 1.87 1.99 2.08 2.10 2.20 2.27 2.23 2.38 2.63 2.92 3.14 3.29
3.61 3.59 3.68 3.45 3.52 3.74 3.75 3.71 3.79 3.98 4.02 3.91 3.79 3.81 3.67 3.68 3.76 3.86 3.69 3.50 3.40 3.31 3.30 3.41 3.21 2.88 2.77 2.78 2.65 2.30 2.01 2.05 2.14 2.18 2.19 2.28 2.47 2.41 2.45 2.44 2.57 2.83 3.09
3.51 3.48 3.67 3.84 3.66 3.84 3.94 3.99 4.16 4.32 4.45 4.37 4.25 4.14 4.10 4.10 4.02 4.14 4.04 3.84 3.69 3.60 3.59 3.34 3.31 3.20 3.16 3.06 2.67 2.43 2.13 2.05 2.12 2.10 2.15 2.24 2.46 2.58 2.61 2.40 2.47 2.78 2.99
3.57 3.62 3.71 4.04 4.03 4.29 4.38 4.21 4.33 4.39 4.51 4.55 4.58 4.53 4.59 4.61 4.48 4.43 4.26 4.09 4.01 3.91 3.80 3.63 3.59 3.52 3.32 3.16 2.71 2.46 2.26 2.05 2.04 2.07 2.07 2.15 2.21 2.25 2.35 2.40 2.43 2.37 2.60
3.83 3.93 3.89 4.01 4.25 4.43 4.59 4.57 4.72 4.70 4.64 4.81 5.00 5.00 5.11 5.16 4.97 4.88 4.72 4.58 4.31 4.06 3.94 3.86 3.69 3.54 3.27 3.16 2.98 2.68 2.28 1.99 2.00 1.98 1.91 1.99 2.05 2.03 2.10 2.19 2.36 2.32 2.22
3.98 4.09 4.26 4.36 4.37 4.49 4.96 5.36 5.65 5.94 5.97 5.89 5.98 5.99 5.80 5.65 5.56 5.37 5.29 5.04 4.66 4.38 4.08 3.85 3.67 3.41 3.14 3.12 3.13 3.16 2.71 2.31 1.88 1.62 1.67 1.71 1.72 1.74 1.83 1.94 2.03 2.09 2.03
3.77 3.98 4.14 4.42 4.76 5.23 5.83 6.25 6.53 6.83 6.94 6.71 6.43 6.25 6.00 5.78 5.62 5.27 5.05 4.92 4.63 4.19 3.92 3.75 3.57 3.35 3.12 3.02 2.98 3.19 2.98 2.58 2.14 1.85 1.63 1.52 1.55 1.67 1.73 1.85 1.89 1.85 1.77
3.33 3.67 4.03 4.36 4.98 5.86 6.52 6.92 7.26 7.36 7.32 7.16 6.90 6.45 5.93 5.56 5.23 4.93 4.67 4.38 4.11 3.76 3.51 3.32 3.23 3.19 3.09 2.91 2.87 2.71 2.51 2.38 2.38 2.14 1.86 1.70 1.65 1.67 1.63 1.59 1.61 1.67 1.69
3.09 3.44 3.88 4.26 4.94 5.64 6.28 6.82 7.23 7.37 7.31 7.09 6.63 6.05 5.43 4.95 4.53 4.17 3.91 3.66 3.43 3.15 2.92 2.72 2.68 2.78 2.83 2.76 2.73 2.68 2.56 2.46 2.36 2.21 2.05 1.98 1.93 1.80 1.66 1.57 1.53 1.53 1.51
2.69 3.03 3.48 3.90 4.43 5.06 5.53 6.09 6.40 6.55 6.44 6.05 5.54 4.92 4.50 4.16 3.83 3.46 3.17 2.94 2.69 2.47 2.31 2.22 2.17 2.21 2.34 2.41 2.47 2.48 2.46 2.53 2.48 2.44 2.29 2.16 2.10 1.95 1.80 1.67 1.59 1.55 1.49